Flag for Cambodia Weather past 2 weeks in Phnom Penh, Cambodia

Now
91 °F

Hot.


Feels Like: 99 °F
Forecast: 76 / 88 °F
Wind: N/A

Location: Phnom-Penh / Pochentong

Current Time: Jul 29, 2015 at 12:38:04 PM

Latest Report: Jul 29, 2015 at 12:00 PM


Visibility: N/A

Pressure: 29.83 "Hg

Humidity: 52%

Dew point: 72 °F

Location of Phnom PenhLocation

Historic Weather in Phnom Penh — Graph

°F

Phnom Penh temperature yesterday

Maximum temperature yesterday: 93 °F (at 10:30 AM)
Minimum temperature yesterday: 79 °F (at 2:00 PM)
Average temperature yesterday: 85 °F

Past Weeks' High & Low Weather Summary

 TemperatureHumidityPressure
High102 °F (Jul 17, 10:00 PM)100% (Jul 19, 3:00 PM)29.89 "Hg (Jul 19, 3:00 PM)
Low75 °F (Jul 19, 2:30 PM)19% (Jul 16, 10:00 PM)29.56 "Hg (Jul 14, 2:30 PM)
Average86 °F67%29.77 "Hg
* Reported Jul 14 12:00 Noon — Jul 29 12:00 Noon, Phnom Penh, Weather by CustomWeather, © 2015

Note: Actual official high and low records may vary slightly from our data, if they occured in-between our weather recording intervals... More about our weather records

Advertising

Phnom Penh weather history for previous 24 hours

 ConditionsComfort  
Time TempWeatherWind HumidityBarometerVisibility
12:00 PM
Wed, Jul 29
91 °FHot.N/A52%29.83 "HgN/A
11:30 AM90 °FScattered clouds.2 mph59%29.86 "HgN/A
11:00 AM90 °FScattered clouds.2 mph59%29.86 "HgN/A
10:30 AM88 °FScattered clouds.2 mph62%29.89 "HgN/A
10:00 AM88 °FScattered clouds.3 mph62%29.89 "HgN/A
9:30 AM86 °FPassing clouds.3 mph66%29.89 "HgN/A
9:00 AM84 °FPassing clouds.5 mph74%29.89 "HgN/A
8:30 AM82 °FBroken clouds.5 mph79%29.89 "HgN/A
8:00 AM81 °FPassing clouds.5 mph84%29.86 "Hg6 mi
7:30 AM81 °FLight rain. Passing clouds.3 mph84%29.86 "Hg6 mi
7:00 AM79 °FLight rain. Passing clouds.2 mph89%29.83 "Hg6 mi
6:30 AM79 °FPassing clouds.3 mph84%29.83 "Hg6 mi
6:00 AM79 °FPassing clouds.3 mph84%29.83 "Hg6 mi
12:30 AM79 °FPassing clouds.1 mph84%29.86 "Hg6 mi
12:00 AM79 °FPassing clouds.No wind84%29.86 "Hg6 mi
11:30 PM
Tue, Jul 28
81 °FPassing clouds.1 mph79%29.86 "Hg6 mi
11:00 PM81 °FPassing clouds.1 mph79%29.89 "Hg6 mi
10:30 PM79 °FPassing clouds.2 mph84%29.89 "Hg6 mi
10:00 PM81 °FPassing clouds.6 mph79%29.89 "Hg6 mi
9:30 PM81 °FPassing clouds.7 mph79%29.89 "Hg6 mi
9:00 PM81 °FPassing clouds.7 mph79%29.86 "Hg6 mi
8:30 PM82 °FPassing clouds.8 mph74%29.86 "HgN/A
8:00 PM82 °FPassing clouds.6 mph74%29.86 "HgN/A
7:30 PM84 °FPartly cloudy.2 mph79%29.83 "HgN/A
7:00 PM84 °FPartly cloudy.1 mph74%29.83 "HgN/A
6:30 PM84 °FPartly cloudy.No wind74%29.80 "HgN/A
6:00 PM84 °FBroken clouds.No wind74%29.80 "HgN/A
5:30 PM86 °FBroken clouds.3 mph66%29.80 "HgN/A
5:00 PM84 °FBroken clouds.6 mph74%29.80 "HgN/A
4:30 PM86 °FBroken clouds.6 mph70%29.80 "HgN/A
4:00 PM86 °FBroken clouds.2 mph70%29.80 "HgN/A
3:30 PM84 °FBroken clouds.1 mph74%29.77 "HgN/A
3:00 PM82 °FLight rain. Broken clouds.1 mph84%29.80 "HgN/A
2:30 PM82 °FLight rain. Broken clouds.3 mph79%29.80 "HgN/A
2:00 PM79 °FLight rain. Broken clouds.5 mph89%29.80 "HgN/A
1:30 PM86 °FLight rain. Broken clouds.14 mph62%29.80 "HgN/A
1:00 PM93 °FBroken clouds.2 mph47%29.83 "HgN/A
12:30 PM91 °FBroken clouds.2 mph49%29.83 "HgN/A
12:00 PM91 °FScattered clouds.5 mph52%29.86 "HgN/A
Weather by CustomWeather, © 2015

See weather overviewHow to use our weather pages